Tracking 22879 objects as of 20-Apr-2021
HD Live streaming from Space Station
objects crossing your sky now

TRISAT

Track TRISAT now!
10-day predictions


NORAD ID: 46280
Int'l Code: 2020-061J
Perigee: 541.2 km
Apogee: 544.5 km
Inclination: 97.5 °
Period: 95.4 minutes
Semi major axis: 6913 km
RCS: Unknown
Launch date: September 3, 2020
Source: Republic of Slovenia (SVN)
Launch site: FRENCH GUIANA (FRGUI)
aabbcc
Your satellite tracking list
Your tracking list is empty




NASA's NSSDC Master Catalog

Two Line Element Set (TLE):
1 46280U 20061J   21110.17175388  .00001277  00000-0  82090-4 0  9994
2 46280  97.4903 184.6401 0002391 284.9525  75.1439 15.10167334 34544
Source of the keplerian elements: AFSPC